Flag for Central African Republic Weather past 2 weeks in Bimbo, Central African Republic

Now
79 °F

Clear.


Feels Like: 82 °F
Forecast: 68 / 88 °F
Wind: 2 mph from Southeast

Location: Bangui Airport


UV Index: 3 (Moderate)

Visibility: 10 mi


Pressure: 29.83 "Hg

Humidity: 89%

Dew point: 75 °F

Location of BimboLocation

Historic Weather in Bimbo

°F

Bimbo temperature yesterday

Maximum temperature yesterday: 93 °F (at 12:00 PM)
Minimum temperature yesterday: 73 °F (at 6:00 AM)
Average temperature yesterday: 81 °F

Past Weeks' High & Low Weather Summary

 TemperatureHumidityPressure
High97 °F (Apr 9, 1:00 PM)100% (Apr 11, 2:00 AM)30.01 "Hg (Apr 11, 2:00 AM)
Low70 °F (Apr 12, 6:00 AM)42% (Apr 9, 1:00 PM)29.71 "Hg (Apr 9, 5:00 PM)
Average80 °F81%29.84 "Hg
* Reported Apr 9 1:00 PM — Apr 23 9:00 PM, Bimbo, Weather by CustomWeather, © 2014

Note: Actual official high and low records may vary slightly from our data, if they occured in-between our weather recording intervals... More about our weather records

Advertising

Historic Weather Conditions — Data for Previous 24 hours

 ConditionsComfort  
Time TempWeatherWind HumidityBarometerVisibility
9:00 PM
Apr 23
79 °FClear.2 mph89%29.83 "Hg10 mi
8:00 PM81 °FClear.2 mph79%29.83 "Hg10 mi
7:00 PM82 °FClear.2 mph79%29.80 "Hg5 mi
6:00 PM84 °FPartly cloudy.5 mph70%29.80 "HgN/A
5:00 PM86 °FScattered clouds.6 mph70%29.77 "HgN/A
4:00 PM90 °FBroken clouds.3 mph55%29.77 "HgN/A
3:00 PM91 °FBroken clouds.3 mph56%29.77 "HgN/A
2:00 PM90 °FBroken clouds.6 mph59%29.80 "HgN/A
1:00 PM90 °FBroken clouds.7 mph63%29.83 "HgN/A
12:00 PM86 °FBroken clouds.8 mph66%29.86 "HgN/A
11:00 AM86 °FBroken clouds.7 mph66%29.89 "HgN/A
10:00 AM82 °FPartly sunny.6 mph74%29.92 "HgN/A
9:00 AM82 °FPartly sunny.5 mph74%29.92 "HgN/A
8:00 AM79 °FClear.No wind84%29.89 "Hg4 mi
7:00 AM75 °FClear.No wind94%29.89 "Hg4 mi
6:00 AM73 °FPartly sunny.No wind94%29.86 "HgN/A
5:00 AM73 °FClear.5 mph94%29.86 "Hg10 mi
4:00 AM73 °FClear.No wind100%29.83 "Hg10 mi
3:00 AM73 °FClear.No wind94%29.83 "Hg10 mi
2:00 AM73 °FClear.2 mph100%29.83 "Hg10 mi
1:00 AM73 °FClear.No wind100%29.83 "Hg10 mi
12:00 AM73 °FPassing clouds.No wind94%29.86 "Hg4 mi
11:00 PM
Apr 22
75 °FPartly cloudy.1 mph89%29.86 "Hg4 mi
10:00 PM75 °FThunderstorms. Passing clouds.2 mph94%29.86 "Hg4 mi
Weather by CustomWeather, © 2014

See weather overview